Tracking 28091 objects as of 30-Sep-2023
HD Live streaming from Space Station
objects crossing your sky now

STARLINK-30144

Track STARLINK-30144 now!
10-day predictions
STARLINK-30144 is classified as:


NORAD ID: 56835
Int'l Code: 2023-079N
Perigee: 529.6 km
Apogee: 530.7 km
Inclination: 43.0 °
Period: 95.1 minutes
Semi major axis: 6901 km
RCS: Unknown
Launch date: June 4, 2023
Source: United States (US)
Launch site: AIR FORCE EASTERN TEST RANGE (AFETR)
Your satellite tracking list
Your tracking list is empty




NASA's NSSDC Master Catalog

Two Line Element Set (TLE):
1 56835U 23079N   23273.17389782  .00010855  00000-0  59322-3 0  9993
2 56835  43.0005 273.6131 0000770 216.3927 143.6868 15.14331419 18757
Source of the keplerian elements: AFSPC